Powrót do katalogu

STARLINK-34187

AktywnyŁącznośćVLEO
NORAD 63956·PAYLOAD·🇺🇸 United States

Wystrzelony May 13, 2025 z Cape Canaveral Space Force Station

Loading…

Następne Przeloty (najbliższe 24 godziny)

TLE

ŚwieżeSource: CelesTrak SupGP

Epoka: Sep 14, 2026, 21:07 UTC

1 63956C 25099E   26257.88034722  .00003340  00000+0  12090-3 0  2571
2 63956  43.0021 188.0336 0001379 260.4612 241.8305 15.27593330    13

Śledź STARLINK-34187 w czasie rzeczywistym z AllMySat

Download on the App Store